| time (UTC) | temp F | wind direction | speed MPH | gust MPH | rain 1hr in | rain 24hr in | rain mn in | humidity % | barometer mb |
| 20260904151626 | 85 | 243 | 15.0 | 22.0 | 0.00 | 0.00 | 0.00 | 84 | 1013.7 |
| 20260904141520 | 84 | 247 | 11.0 | 21.0 | 0.00 | 0.00 | 0.00 | 85 | 1013.9 |
| 20260904131539 | 83 | 291 | 9.0 | 19.0 | 0.00 | 0.00 | 0.00 | 87 | 1013.9 |
| 20260904114616 | 81 | 233 | 18.0 | 25.0 | 0.00 | 0.00 | 0.00 | 91 | 1013.5 |
| 20260904093035 | 83 | 246 | 18.0 | 26.0 | 0.00 | 0.00 | 0.00 | 87 | 1013.3 |
| 20260904064542 | 83 | 254 | 21.0 | 28.0 | 0.00 | 0.00 | 0.00 | 89 | 1013.3 |
| 20260904054542 | 83 | 229 | 24.0 | 29.0 | 0.00 | 0.00 | 0.00 | 87 | 1013.9 |
| 20260904053045 | 83 | 249 | 22.0 | 28.0 | 0.00 | 0.00 | 0.00 | 88 | 1014.0 |
| 20260904051551 | 83 | 219 | 17.0 | 27.0 | 0.00 | 0.00 | 0.00 | 88 | 1014.2 |
| 20260904050050 | 83 | 224 | 18.0 | 25.0 | 0.00 | 0.00 | 0.00 | 88 | 1014.3 |
| 20260904044554 | 83 | 250 | 18.0 | 27.0 | 0.00 | 0.00 | 0.00 | 88 | 1014.3 |
| 20260904043001 | 83 | 239 | 17.0 | 25.0 | 0.00 | 0.00 | 0.00 | 89 | 1014.4 |
| 20260904041521 | 83 | 221 | 16.0 | 23.0 | 0.00 | 0.00 | 0.00 | 90 | 1014.6 |
| 20260904040038 | 83 | 256 | 18.0 | 26.0 | 0.00 | 0.00 | 0.00 | 89 | 1014.6 |
| 20260904034503 | 84 | 235 | 16.0 | 25.0 | 0.00 | 0.00 | 0.00 | 89 | 1014.7 |
| 20260904020104 | 84 | 220 | 15.0 | 22.0 | 0.00 | 0.00 | 0.00 | 90 | 1015.2 |
| 20260904010037 | 84 | 238 | 16.0 | 24.0 | 0.00 | 0.00 | 0.00 | 86 | 1014.6 |
| 20260903223056 | 85 | 188 | 14.0 | 25.0 | 0.00 | 0.00 | 0.00 | 82 | 1013.7 |
| 20260903213130 | 86 | 207 | 14.0 | 22.0 | 0.00 | 0.00 | 0.00 | 80 | 1013.9 |
| 20260903204625 | 86 | 228 | 13.0 | 19.0 | 0.00 | 0.00 | 0.00 | 80 | 1014.1 |
| 20260903203112 | 86 | 226 | 12.0 | 22.0 | 0.00 | 0.00 | 0.00 | 79 | 1014.1 |
| 20260903184622 | 86 | 246 | 12.0 | 19.0 | 0.00 | 0.00 | 0.00 | 84 | 1014.8 |
| 20260903170140 | 86 | 206 | 11.0 | 16.0 | 0.00 | 0.00 | 0.00 | 82 | 1015.9 |